Home > Weather > Włocławek > Past weeks

Flag for Poland Past Weather in Włocławek, Poland — Yesterday and Last 2 Weeks

Now
66 °F

Mild.


Feels Like: 66 °F
Forecast: 59 / 88 °F
Wind: 2 mph from South

Location: Plock

Current Time: Aug 27, 2016 at 8:43:04 AM

Latest Report: Aug 27, 2016 at 8:00 AM


Visibility: 16 mi

Pressure: 30.16 "Hg

Humidity: 69%

Dew Point: 56 °F

Location of WłocławekLocation

Past Weather in Włocławek — Graph

°F

Włocławek Temperature Yesterday

Maximum temperature yesterday: 83 °F (at 5:00 PM)
Minimum temperature yesterday: 67 °F (at 11:00 PM)
Average temperature yesterday: 78 °F

High & Low Weather Summary for the Past Weeks

 TemperatureHumidityPressure
High83 °F (Aug 26, 5:00 PM)98% (Aug 23, 7:00 AM)30.30 "Hg (Aug 23, 7:00 AM)
Low48 °F (Aug 17, 6:00 AM)28% (Aug 26, 4:00 PM)29.81 "Hg (Aug 18, 4:00 PM)
Average65 °F67%30.05 "Hg
* Reported Aug 12 7:00 AM — Aug 27 7:00 AM, Włocławek, Weather by CustomWeather, © 2016

Note: Actual official high and low records may vary slightly from our data, if they occured in-between our weather recording intervals... More about our weather records

Advertising

Włocławek Weather History for the Previous 24 Hours

Scroll right to see more
 ConditionsComfort  
Time TempWeatherWind HumidityBarometerVisibility
7:00 AM
Sat, Aug 27
60 °FCool.1 mph80%30.16 "Hg14 mi
6:00 AM58 °FCool.2 mph83%30.16 "Hg16 mi
5:00 AM58 °FCool.2 mph81%30.16 "Hg14 mi
4:00 AM59 °FCool.2 mph78%30.16 "Hg19 mi
3:00 AM61 °FCool.2 mph73%30.16 "Hg22 mi
2:00 AM62 °FCool.2 mph70%30.17 "Hg25 mi
1:00 AM64 °FMild.2 mph66%30.16 "Hg25 mi
12:00 AM65 °FMild.2 mph62%30.16 "Hg25 mi
11:00 PM
Fri, Aug 26
67 °FMild.2 mph57%30.16 "Hg28 mi
10:00 PM69 °FMild.2 mph52%30.15 "Hg31 mi
9:00 PM73 °FMild.2 mph46%30.15 "Hg31 mi
8:00 PM75 °FMild.2 mph43%30.14 "Hg28 mi
7:00 PM79 °FPleasantly warm.3 mph38%30.13 "Hg28 mi
6:00 PM83 °FPleasantly warm.5 mph30%30.14 "Hg22 mi
5:00 PM83 °FPleasantly warm.6 mph28%30.15 "Hg25 mi
4:00 PM83 °FPleasantly warm.5 mph28%30.16 "Hg25 mi
3:00 PM82 °FPleasantly warm.5 mph30%30.17 "Hg19 mi
2:00 PM81 °FPleasantly warm.5 mph31%30.19 "Hg19 mi
1:00 PM79 °FPleasantly warm.5 mph34%30.20 "Hg19 mi
Weather by CustomWeather, © 2016

See weather overviewHow to use our weather pages